Location: Unspecified
(47.2500°N, 0.0000°E)
Time: 21:08:54
(UTC+00:00)

Tiangong 2 - Pass Details

Date: 29 June 2019
Orbit: 378 x 386 km, 42.8° (Epoch: 17 July)

Event Time Altitude Azimuth Distance (km) Brightness Sun altitude
Exits shadow 03:25:13 - 234° (SW) 1,539 3.4 -6.2°
Reaches altitude 10° 03:25:36 10° 231° (SW) 1,393 3.2 -6.1°
Maximum altitude 03:28:23 29° 168° (SSE) 728 2.2 -5.8°
Drops below altitude 10° 03:31:11 10° 106° (ESE) 1,401 4.4 -5.4°
Sets 03:33:24 0° 95° (E) 2,257 5.7 -5.2°
